Texas General Land Office
 Texas General Land Office
 George P. Bush, Commissioner

 Oil Spill Prevention
 & Response

Texas Automated Buoy System
Real Time Ocean Observations
Supporting Oil Spill Prevention and
Response since 1995
Geochemical and Environmental Research Group

TABS Buoy F -- Texas Automated Buoy System

TABS Buoy F Conditions at 03/25/2019 14:00 UTC (03/25/2019 09:00 CDT)
28° 50.5500'N   94° 14.4960'W
AA3900 DCS - sensor depth 2m
Water Depth: 79 feet (24 meters)
Speed: 24.97 cm/s (0.49 kts) Direction: 250 °T (WSW) Water Temp: 19°C (67 °F)
System Voltage: 14.1 V Signal Strength: -2.6 dB Ping Count: 137
  


IMPORTANT: Notice to Mariners


Today's Velocity Data (download)

   Date   |  Time  |   East |   North|   Speed|  Dir | WaterT |
          |  (UTC) |  (cm/s)|  (cm/s)|  (cm/s)| (°T) |  (°C)  |
==========+========+========+========+========+======+========+
03/23/2019 10:00:00     1.89     3.98     4.41   25.4   18.7
03/23/2019 10:30:00     0.09     0.74     0.75    6.9   18.7
03/23/2019 11:00:00     0.61    -1.93     2.02  162.5   18.7
03/23/2019 11:30:00     1.95    -1.18     2.28  121.2   18.7
03/23/2019 12:00:00     2.33    -2.74     3.60  139.6   18.6
03/23/2019 12:30:00     1.95    -5.90     6.21  161.7   18.7
03/23/2019 13:00:00     2.25    -9.88    10.13  167.2   18.6
03/23/2019 13:30:00     2.15   -12.66    12.84  170.4   18.7
03/23/2019 14:00:00     0.95   -14.15    14.18  176.2   18.7
03/23/2019 14:30:00     2.91   -12.41    12.75  166.8   18.7
03/23/2019 15:00:00     1.59   -13.45    13.54  173.3   18.7
03/23/2019 15:30:00     1.62   -14.65    14.74  173.7   18.8
03/23/2019 16:00:00     2.43   -12.46    12.69  169.0   18.8
03/23/2019 16:30:00     1.79   -10.09    10.25  169.9   18.8
03/23/2019 17:00:00    -0.22    -9.26     9.26  181.4   18.8
03/23/2019 17:30:00    -0.71    -7.66     7.69  185.3   18.9
03/23/2019 18:00:00    -1.73    -5.65     5.91  197.0   18.9
03/23/2019 18:30:00    -0.11    -5.04     5.04  181.3   18.9
03/23/2019 19:00:00    -2.98    -3.76     4.80  218.4   18.9
03/23/2019 19:30:00    -3.95    -5.38     6.67  216.3   18.9
03/23/2019 20:00:00    -7.24     0.18     7.24  271.4   18.9
03/23/2019 20:30:00    -5.99     0.62     6.02  275.9   18.9
03/23/2019 21:00:00    -4.39    -0.23     4.40  267.0   18.9
03/23/2019 21:30:00    -2.69    -0.24     2.70  264.9   18.9
03/23/2019 22:00:00    -1.92    -0.20     1.93  264.1   18.9
03/23/2019 22:30:00    -2.70    -2.70     3.82  225.0   18.9
03/23/2019 23:00:00    -5.44    -3.92     6.71  234.2   18.9
03/23/2019 23:30:00    -5.83    -3.47     6.78  239.2   18.9
03/24/2019 00:00:00    -7.55    -7.49    10.63  225.2   18.9
03/24/2019 00:30:00    -7.04    -9.95    12.19  215.3   18.9
03/24/2019 01:00:00    -6.38    -8.52    10.64  216.8   18.9
03/24/2019 01:30:00    -4.37    -7.61     8.78  209.9   18.9
03/24/2019 02:00:00    -4.19    -5.66     7.04  216.5   18.9
03/24/2019 02:30:00    -3.47    -7.28     8.06  205.5   18.9
03/24/2019 03:00:00    -4.61    -4.80     6.66  223.8   18.9
03/24/2019 03:30:00    -4.83    -4.95     6.92  224.3   18.9
03/24/2019 04:00:00    -2.73    -2.58     3.76  226.6   18.9
03/24/2019 04:30:00    -3.28     2.02     3.85  301.6   18.9
03/24/2019 05:00:00    -2.34     3.39     4.12  325.4   18.8
03/24/2019 05:30:00    -2.37     4.60     5.17  332.7   18.8
03/24/2019 06:00:00    -1.42     5.06     5.26  344.3   18.8
03/24/2019 06:30:00    -0.85     5.56     5.62  351.3   18.8
03/24/2019 07:00:00     0.25     4.00     4.01    3.6   18.8
03/24/2019 07:30:00    -1.23     5.61     5.74  347.6   18.8
03/24/2019 08:00:00    -0.35     3.96     3.98  354.9   18.8
03/24/2019 08:30:00    -2.09     6.04     6.39  340.9   18.8
03/24/2019 09:00:00    -1.18     6.09     6.20  349.0   18.8
03/24/2019 09:30:00    -1.38     3.58     3.84  338.9   18.8
03/24/2019 10:00:00    -0.42     2.04     2.08  348.4   18.8
03/24/2019 10:30:00    -1.53    -0.16     1.54  264.0   18.8
03/24/2019 11:00:00    -1.30    -2.60     2.91  206.6   18.8
03/24/2019 11:30:00    -1.03    -4.99     5.10  191.7   18.8
03/24/2019 12:00:00     1.67    -7.34     7.53  167.2   18.8
03/24/2019 12:30:00     0.64   -11.31    11.33  176.8   18.8
03/24/2019 13:00:00     0.00   -12.95    12.95  180.0   18.8
03/24/2019 13:30:00     0.22   -13.89    13.89  179.1   18.8
03/24/2019 14:00:00    -0.73   -14.89    14.91  182.8   18.8
03/24/2019 14:30:00     1.59   -14.17    14.26  173.6   18.8
03/24/2019 15:00:00    -2.39   -15.92    16.10  188.5   18.9
03/24/2019 15:30:00    -4.40   -12.84    13.57  198.9   18.9
03/24/2019 16:00:00    -6.81   -11.43    13.30  210.8   19.0
03/24/2019 16:30:00    -7.31    -7.25    10.30  225.2   19.0
03/24/2019 17:00:00    -8.38    -4.95     9.73  239.4   19.1
03/24/2019 17:30:00    -6.57    -4.21     7.80  237.3   19.1
03/24/2019 18:00:00    -2.37    -3.15     3.94  217.0   19.1
03/24/2019 18:30:00    -4.06     0.06     4.06  270.8   19.2
03/24/2019 19:00:00    -3.86     0.27     3.87  274.0   19.2
03/24/2019 19:30:00    -4.04     0.83     4.12  281.6   19.3
03/24/2019 20:00:00    -2.41     4.51     5.11  331.9   19.4
03/24/2019 20:30:00    -3.14     4.69     5.64  326.2   19.5
03/24/2019 21:00:00    -5.14     5.92     7.84  319.0   19.6
03/24/2019 21:30:00    -3.46     6.85     7.67  333.2   19.6
03/24/2019 22:00:00    -1.47     3.84     4.11  339.1   19.6
03/24/2019 22:30:00    -1.86     5.62     5.92  341.7   19.7
03/24/2019 23:00:00    -1.42     6.67     6.82  348.0   19.7
03/24/2019 23:30:00    -2.55     4.58     5.24  330.9   19.7
03/25/2019 00:00:00    -2.02     0.77     2.16  290.9   19.7
03/25/2019 00:30:00    -1.38     1.72     2.21  321.3   19.6
03/25/2019 01:00:00    -4.16    -4.02     5.78  226.0   19.6
03/25/2019 01:30:00    -2.93    -2.68     3.97  227.6   19.6
03/25/2019 02:00:00    -5.48    -0.76     5.53  262.1   19.6
03/25/2019 02:30:00    -6.04    -4.03     7.26  236.3   19.6
03/25/2019 03:00:00    -9.06    -5.32    10.51  239.6   19.6
03/25/2019 03:30:00   -10.43    -8.60    13.52  230.5   19.6
03/25/2019 04:00:00   -10.72    -7.45    13.05  235.2   19.7
03/25/2019 04:30:00   -12.24    -5.44    13.39  246.0   19.7
03/25/2019 05:00:00   -21.20    -2.94    21.40  262.1   19.8
03/25/2019 05:30:00   -21.42    -1.35    21.46  266.4   19.8
03/25/2019 06:00:00   -21.10    -1.52    21.15  265.9   19.8
03/25/2019 06:30:00   -21.98    -0.14    21.98  269.6   19.6
03/25/2019 07:00:00   -20.18     2.57    20.34  277.3   19.5
03/25/2019 07:30:00   -21.83     3.48    22.11  279.1   19.4
03/25/2019 08:00:00   -21.65     3.98    22.01  280.4   19.4
03/25/2019 08:30:00   -21.04     0.49    21.05  271.3   19.3
03/25/2019 09:00:00   -18.73     1.58    18.80  274.8   19.3
03/25/2019 09:30:00   -19.43     3.01    19.66  278.8   19.3
03/25/2019 10:00:00   -18.25     2.36    18.40  277.4   19.3
03/25/2019 10:30:00   -17.45     0.10    17.45  270.3   19.3
03/25/2019 11:00:00   -16.51    -2.74    16.74  260.6   19.3
03/25/2019 11:30:00   -15.45    -1.16    15.49  265.7   19.4
03/25/2019 12:00:00   -16.63    -2.84    16.87  260.3   19.4
03/25/2019 12:30:00   -18.28    -5.91    19.21  252.1   19.3
03/25/2019 13:00:00   -18.36    -7.36    19.78  248.2   19.2
03/25/2019 13:30:00   -21.26    -8.20    22.79  248.9   19.2
03/25/2019 14:00:00   -23.44    -8.61    24.97  249.8   19.3



       
 

Today's Temperature - Salinity Data     (Download)


   Date   |  Time  |   Temp |   Cond |Salinity| Density|SoundVel|
          |  (UTC) |   (°C) | (ms/cm)|        | kg/m^3 |  (m/s) |
==========+========+========+========+========+========+========+
03/23/2019 10:00:00    18.67     4.51    33.79     0.00     0.00
03/23/2019 10:30:00    18.65     4.51    33.80     0.00     0.00
03/23/2019 11:00:00    18.65     4.51    33.81     0.00     0.00
03/23/2019 11:30:00    18.62     4.51    33.80     0.00     0.00
03/23/2019 12:00:00    18.63     4.51    33.81     0.00     0.00
03/23/2019 12:30:00    18.63     4.51    33.82     0.00     0.00
03/23/2019 13:00:00    18.62     4.51    33.82     0.00     0.00
03/23/2019 13:30:00    18.65     4.52    33.84     0.00     0.00
03/23/2019 14:00:00    18.65     4.51    33.82     0.00     0.00
03/23/2019 14:30:00    18.66     4.51    33.80     0.00     0.00
03/23/2019 15:00:00    18.69     4.51    33.79     0.00     0.00
03/23/2019 15:30:00    18.72     4.51    33.76     0.00     0.00
03/23/2019 16:00:00    18.74     4.51    33.74     0.00     0.00
03/23/2019 16:30:00    18.76     4.51    33.72     0.00     0.00
03/23/2019 17:00:00    18.80     4.52    33.71     0.00     0.00
03/23/2019 17:30:00    18.85     4.52    33.70     0.00     0.00
03/23/2019 18:00:00    18.84     4.52    33.69     0.00     0.00
03/23/2019 18:30:00    18.82     4.52    33.68     0.00     0.00
03/23/2019 19:00:00    18.85     4.52    33.66     0.00     0.00
03/23/2019 19:30:00    18.88     4.52    33.65     0.00     0.00
03/23/2019 20:00:00    18.89     4.52    33.65     0.00     0.00
03/23/2019 20:30:00    18.88     4.52    33.66     0.00     0.00
03/23/2019 21:00:00    18.86     4.52    33.66     0.00     0.00
03/23/2019 21:30:00    18.85     4.52    33.67     0.00     0.00
03/23/2019 22:00:00    18.84     4.52    33.67     0.00     0.00
03/23/2019 22:30:00    18.85     4.52    33.67     0.00     0.00
03/23/2019 23:00:00    18.87     4.52    33.68     0.00     0.00
03/23/2019 23:30:00    18.86     4.52    33.66     0.00     0.00
03/24/2019 00:00:00    18.84     4.51    33.65     0.00     0.00
03/24/2019 00:30:00    18.83     4.51    33.64     0.00     0.00
03/24/2019 01:00:00    18.83     4.51    33.63     0.00     0.00
03/24/2019 01:30:00    18.83     4.51    33.63     0.00     0.00
03/24/2019 02:00:00    18.83     4.51    33.63     0.00     0.00
03/24/2019 02:30:00    18.83     4.51    33.62     0.00     0.00
03/24/2019 03:00:00    18.83     4.51    33.61     0.00     0.00
03/24/2019 03:30:00    18.83     4.51    33.61     0.00     0.00
03/24/2019 04:00:00    18.83     4.51    33.62     0.00     0.00
03/24/2019 04:30:00    18.82     4.51    33.62     0.00     0.00
03/24/2019 05:00:00    18.82     4.51    33.61     0.00     0.00
03/24/2019 05:30:00    18.81     4.51    33.62     0.00     0.00
03/24/2019 06:00:00    18.81     4.51    33.62     0.00     0.00
03/24/2019 06:30:00    18.80     4.51    33.62     0.00     0.00
03/24/2019 07:00:00    18.80     4.51    33.63     0.00     0.00
03/24/2019 07:30:00    18.79     4.51    33.63     0.00     0.00
03/24/2019 08:00:00    18.79     4.51    33.64     0.00     0.00
03/24/2019 08:30:00    18.75     4.51    33.66     0.00     0.00
03/24/2019 09:00:00    18.76     4.51    33.66     0.00     0.00
03/24/2019 09:30:00    18.76     4.51    33.67     0.00     0.00
03/24/2019 10:00:00    18.75     4.51    33.67     0.00     0.00
03/24/2019 10:30:00    18.75     4.51    33.67     0.00     0.00
03/24/2019 11:00:00    18.74     4.51    33.68     0.00     0.00
03/24/2019 11:30:00    18.75     4.51    33.67     0.00     0.00
03/24/2019 12:00:00    18.74     4.51    33.67     0.00     0.00
03/24/2019 12:30:00    18.75     4.50    33.65     0.00     0.00
03/24/2019 13:00:00    18.76     4.50    33.64     0.00     0.00
03/24/2019 13:30:00    18.78     4.51    33.63     0.00     0.00
03/24/2019 14:00:00    18.78     4.51    33.64     0.00     0.00
03/24/2019 14:30:00    18.79     4.51    33.62     0.00     0.00
03/24/2019 15:00:00    18.84     4.51    33.62     0.00     0.00
03/24/2019 15:30:00    18.92     4.52    33.61     0.00     0.00
03/24/2019 16:00:00    18.98     4.52    33.62     0.00     0.00
03/24/2019 16:30:00    19.04     4.53    33.62     0.00     0.00
03/24/2019 17:00:00    19.08     4.53    33.62     0.00     0.00
03/24/2019 17:30:00    19.16     4.54    33.58     0.00     0.00
03/24/2019 18:00:00    19.14     4.53    33.55     0.00     0.00
03/24/2019 18:30:00    19.18     4.54    33.62     0.00     0.00
03/24/2019 19:00:00    19.28     4.55    33.58     0.00     0.00
03/24/2019 19:30:00    19.34     4.56    33.62     0.00     0.00
03/24/2019 20:00:00    19.43     4.57    33.60     0.00     0.00
03/24/2019 20:30:00    19.50     4.57    33.59     0.00     0.00
03/24/2019 21:00:00    19.56     4.58    33.61     0.00     0.00
03/24/2019 21:30:00    19.64     4.58    33.58     0.00     0.00
03/24/2019 22:00:00    19.61     4.59    33.63     0.00     0.00
03/24/2019 22:30:00    19.65     4.59    33.64     0.00     0.00
03/24/2019 23:00:00    19.65     4.59    33.62     0.00     0.00
03/24/2019 23:30:00    19.63     4.59    33.64     0.00     0.00
03/25/2019 00:00:00    19.62     4.59    33.65     0.00     0.00
03/25/2019 00:30:00    19.61     4.59    33.65     0.00     0.00
03/25/2019 01:00:00    19.61     4.59    33.66     0.00     0.00
03/25/2019 01:30:00    19.61     4.59    33.66     0.00     0.00
03/25/2019 02:00:00    19.62     4.59    33.67     0.00     0.00
03/25/2019 02:30:00    19.63     4.59    33.69     0.00     0.00
03/25/2019 03:00:00    19.60     4.59    33.71     0.00     0.00
03/25/2019 03:30:00    19.62     4.60    33.74     0.00     0.00
03/25/2019 04:00:00    19.65     4.60    33.75     0.00     0.00
03/25/2019 04:30:00    19.73     4.62    33.79     0.00     0.00
03/25/2019 05:00:00    19.84     4.63    33.79     0.00     0.00
03/25/2019 05:30:00    19.78     4.61    33.67     0.00     0.00
03/25/2019 06:00:00    19.75     4.60    33.64     0.00     0.00
03/25/2019 06:30:00    19.55     4.57    33.53     0.00     0.00
03/25/2019 07:00:00    19.43     4.55    33.48     0.00     0.00
03/25/2019 07:30:00    19.40     4.55    33.48     0.00     0.00
03/25/2019 08:00:00    19.35     4.54    33.48     0.00     0.00
03/25/2019 08:30:00    19.27     4.53    33.43     0.00     0.00
03/25/2019 09:00:00    19.28     4.53    33.46     0.00     0.00
03/25/2019 09:30:00    19.31     4.54    33.49     0.00     0.00
03/25/2019 10:00:00    19.29     4.54    33.49     0.00     0.00
03/25/2019 10:30:00    19.30     4.54    33.52     0.00     0.00
03/25/2019 11:00:00    19.30     4.55    33.55     0.00     0.00
03/25/2019 11:30:00    19.32     4.55    33.56     0.00     0.00
03/25/2019 12:00:00    19.33     4.55    33.55     0.00     0.00
03/25/2019 12:30:00    19.23     4.53    33.47     0.00     0.00
03/25/2019 13:00:00    19.23     4.53    33.44     0.00     0.00
03/25/2019 13:30:00    19.18     4.51    33.31     0.00     0.00
03/25/2019 14:00:00    19.24     4.51    33.27     0.00     0.00